Volver al catálogo

STARLINK-36752

ActivoComunicacionesSSO
NORAD 67724·PAYLOAD·🇺🇸 United States

Lanzado Feb 11, 2026 desde Vandenberg Space Force Base

Loading…

Próximos Pases (próximas 24 horas)

TLE

ActualizadoSource: CelesTrak SupGP

Época: Sep 14, 2026, 21:13 UTC

1 67724C 26026D   26257.88451389 -.00009200  00000+0 -28566-3 0  2579
2 67724  97.2847 309.7429 0001053  90.5221  10.9708 15.33437103    13

Sigue STARLINK-36752 en tiempo real con AllMySat

Download on the App Store